Location: Copper Breaks State Park
(34.1132°N, 99.7492°W)
Time: 18:22:00
(UTC-06:00)

Amateur Radio Satellites - All Passes

Search period start: 29 January 2015 17:52
Search period end: 30 January 2015 17:52
Location: Copper Breaks State Park, 34.1132°N, 99.7492°W

Satellite Date Start Highest point End Downlink Frequencies (MHz)
Time Altitude Azimuth
AO-7 29 Jan 18:15:37 18:17:53 11° 273° (W) 18:19:15 29.400- 29.500
JAS-2 29 Jan 18:17:46 18:19:58 12° 269° (W) 18:21:44 435.910
MOZHAYETS 4 29 Jan 18:24:41 18:28:23 24° 289° (WNW) 18:31:58
PRISM 29 Jan 18:33:51 18:37:39 35° 98° (E) 18:41:31 437.425
Cubesat XI-IV 29 Jan 18:36:32 18:41:45 56° 259° (W) 18:47:00 437.490
CUBESAT XI-V 29 Jan 18:40:39 18:44:49 32° 96° (E) 18:49:03 437.345
JUGNU 29 Jan 18:47:35 18:51:45 20° 177° (S) 18:55:57 437.505
STRAND 1 29 Jan 18:56:43 19:01:18 33° 97° (E) 19:05:56 437.568
CUTE-I 29 Jan 18:56:51 19:01:44 36° 263° (W) 19:06:35 437.470
YUBILEINY 29 Jan 19:03:23 19:10:27 30° 87° (E) 19:17:48 435.215
SO-50 29 Jan 19:09:39 19:13:49 27° 52° (NE) 19:18:03 436.795
BRITE-PL 29 Jan 19:16:06 19:18:02 12° 64° (ENE) 19:20:19 437.365/2234.400
SRMSAT 29 Jan 19:28:52 19:32:46 18° 172° (S) 19:36:42 437.500
HO-68 29 Jan 19:39:16 19:45:05 29° 65° (ENE) 19:51:06 435.675
SEEDS 29 Jan 19:53:06 19:55:17 14° 69° (ENE) 19:57:40 437.485
PRISM 29 Jan 20:10:26 20:12:56 15° 291° (WNW) 20:15:16 437.425
COMPASS 1 29 Jan 20:17:47 20:21:04 23° 72° (ENE) 20:24:26 437.405
CUBESAT XI-V 29 Jan 20:18:31 20:22:06 21° 290° (WNW) 20:25:34 437.345
CANX-2 29 Jan 20:32:34 20:36:46 56° 76° (ENE) 20:40:59 2200.000
JUGNU 29 Jan 20:36:11 20:40:08 18° 187° (S) 20:44:03 437.505
STRAND 1 29 Jan 20:36:11 20:40:22 25° 291° (WNW) 20:44:26 437.568
DELFI C3 29 Jan 20:38:00 20:39:28 12° 69° (ENE) 20:41:07 145.870
CINEMA 3 29 Jan 20:38:01 20:41:51 24° 70° (ENE) 20:45:53 145.822/145.860
AAUSAT CUBESAT 2 29 Jan 20:43:00 20:46:55 39° 74° (ENE) 20:50:52 437.432
GOMX 1 29 Jan 20:43:42 20:48:40 69° 75° (ENE) 20:53:58 467.674
SO-50 29 Jan 20:50:01 20:54:25 32° 247° (WSW) 20:58:42 436.795
UWE-3 29 Jan 20:50:34 20:53:03 15° 68° (ENE) 20:55:46 435.000/436.395/437.385
BRITE-PL 29 Jan 20:50:56 20:55:52 71° 260° (W) 21:01:15 437.365/2234.400
DOVE 4 29 Jan 20:53:36 20:58:31 62° 75° (ENE) 21:03:42 437.250
CUTE 1.7 + AOD 2 29 Jan 20:56:32 21:00:51 81° 258° (WSW) 21:05:09 437.475
YUBILEINY 29 Jan 20:58:37 21:06:58 49° 283° (WNW) 21:15:19 435.215
Oscar 11 29 Jan 21:00:19 21:04:05 30° 72° (ENE) 21:07:55 145.826/435.025
ISS 29 Jan 21:02:40 21:05:30 29° 131° (SE) 21:08:25 145.825
SRMSAT 29 Jan 21:17:03 21:21:19 20° 182° (S) 21:25:34 437.500
HO-68 29 Jan 21:25:43 21:32:34 47° 260° (W) 21:39:23 435.675
SEEDS 29 Jan 21:26:48 21:30:50 40° 262° (W) 21:34:50 437.485
UKube-1 29 Jan 21:35:37 21:39:42 44° 74° (ENE) 21:43:52 .
CUBEBUG 2 29 Jan 21:45:36 21:50:18 73° 77° (ENE) 21:55:06 437.445
HUMSAT D 29 Jan 21:50:30 21:54:11 28° 72° (ENE) 21:57:58 437.325/437.525
ZACube-1 29 Jan 21:51:00 21:55:30 57° 75° (ENE) 22:00:03 437.345
COMPASS 1 29 Jan 21:53:16 21:56:44 24° 265° (W) 22:00:06 437.405
DX 1 29 Jan 21:56:49 22:01:10 85° 77° (ENE) 22:05:33 434.975-435.025
AIST 1 29 Jan 22:02:15 22:04:39 15° 73° (ENE) 22:07:14
FUNcube-1 29 Jan 22:02:41 22:07:15 77° 76° (ENE) 22:11:52 145.935
DELFI C3 29 Jan 22:10:27 22:14:22 44° 261° (W) 22:18:17 145.870
CINEMA 3 29 Jan 22:14:30 22:18:53 32° 264° (W) 22:23:21 145.822/145.860
AAUSAT CUBESAT 2 29 Jan 22:20:39 22:22:49 13° 269° (W) 22:24:45 437.432
AISAT 29 Jan 22:24:03 22:28:25 60° 75° (ENE) 22:32:50 437.250
UWE-3 29 Jan 22:24:43 22:29:14 48° 261° (W) 22:33:48 435.000/436.395/437.385
GOMX 1 29 Jan 22:25:50 22:27:29 11° 273° (W) 22:28:46 467.674
JUGNU 29 Jan 22:27:20 22:28:30 10° 196° (SSW) 22:29:31 437.505
ESTCUBE 1 29 Jan 22:29:26 22:33:11 27° 71° (ENE) 22:37:01 437.505/2401.250
ANTELSAT 29 Jan 22:31:32 22:34:58 23° 94° (E) 22:38:26 437.575/2403.000
DOVE 4 29 Jan 22:34:37 22:36:51 12° 272° (W) 22:38:47 437.250
Oscar 11 29 Jan 22:37:10 22:40:20 19° 267° (W) 22:43:21 145.826/435.025
TIGRISAT 29 Jan 22:38:44 22:42:27 27° 95° (E) 22:46:08 435.000
ISS 29 Jan 22:39:21 22:42:00 22° 326° (NW) 22:44:40 145.825
NANOSAT C BR1 29 Jan 22:42:46 22:45:30 17° 93° (E) 22:48:24 145.865
VELOX 1 29 Jan 22:51:59 22:56:23 65° 259° (W) 23:00:48 145.980
50 SAT 29 Jan 22:56:21 23:00:26 59° 260° (W) 23:04:31 437.505
QB50P2 29 Jan 22:56:46 23:00:20 26° 95° (E) 23:03:57 145.880/145.840
CUBEBUG 1 29 Jan 22:58:40 23:02:53 54° 75° (ENE) 23:07:10 437.445
QB50P1 29 Jan 23:05:39 23:09:31 32° 97° (E) 23:13:23 145.935-145.965
SRMSAT 29 Jan 23:06:37 23:09:51 15° 192° (SSW) 23:12:58 437.500
UKube-1 29 Jan 23:14:09 23:16:10 13° 269° (W) 23:17:57 .
BUGSAT 1 29 Jan 23:14:16 23:18:03 31° 97° (E) 23:21:53 437.445
TISAT 1 29 Jan 23:18:02 23:20:59 19° 70° (ENE) 23:24:04 437.305
POLYITAN 1 29 Jan 23:20:37 23:24:49 51° 99° (E) 23:29:00 437.675
HUMSAT D 29 Jan 23:26:44 23:30:01 20° 266° (W) 23:33:11 437.325/437.525
ZACube-1 29 Jan 23:30:48 23:32:18 11° 271° (W) 23:33:29 437.345
UNISAT 6 29 Jan 23:31:26 23:35:50 67° 284° (WNW) 23:40:07 437.425
AIST 1 29 Jan 23:38:30 23:42:31 36° 268° (W) 23:46:31
POPSAT HIP 1 29 Jan 23:40:13 23:44:33 88° 98° (E) 23:48:50 437.405
DUCHIFAT 1 29 Jan 23:42:30 23:46:49 87° 284° (WNW) 23:51:05 145.980
ESTCUBE 1 30 Jan 00:06:32 00:10:05 22° 266° (W) 00:13:31 437.505/2401.250
ANTELSAT 30 Jan 00:08:06 00:11:46 25° 289° (WNW) 00:15:16 437.575/2403.000
TIGRISAT 30 Jan 00:15:40 00:19:06 22° 290° (WNW) 00:22:20 435.000
BEESAT 30 Jan 00:16:37 00:18:51 14° 67° (ENE) 00:21:19 436.000
SPROUT 30 Jan 00:17:25 00:21:43 79° 258° (WSW) 00:26:04 437.525
NANOSAT C BR1 30 Jan 00:17:38 00:21:30 32° 287° (WNW) 00:25:17 145.865
ITUPSAT 1 30 Jan 00:20:37 00:23:08 15° 67° (ENE) 00:25:53 437.325
QB50P2 30 Jan 00:32:48 00:36:09 22° 289° (WNW) 00:39:23 145.880/145.840
CUBEBUG 1 30 Jan 00:39:14 00:39:42 10° 270° (W) 00:39:49 437.445
QB50P1 30 Jan 00:42:16 00:45:12 18° 290° (WNW) 00:47:59 145.935-145.965
BUGSAT 1 30 Jan 00:50:20 00:53:22 18° 290° (WNW) 00:56:15 437.445
TISAT 1 30 Jan 00:52:56 00:56:39 29° 264° (W) 01:00:20 437.305
POLYITAN 1 30 Jan 00:58:42 01:00:22 12° 292° (WNW) 01:01:48 437.675
GONETS M04 30 Jan 01:05:04 01:13:01 42° 89° (E) 01:21:05
Oscar 19 30 Jan 01:12:01 01:15:39 20° 93° (E) 01:19:27 437.125/150
SWISSCUBE 30 Jan 01:35:53 01:40:38 74° 259° (W) 01:45:23 437.505
BEESAT 30 Jan 01:51:40 01:56:19 53° 260° (W) 02:00:59 436.000
STARS 30 Jan 01:54:00 01:56:54 18° 69° (ENE) 01:59:58 437.465
ITUPSAT 1 30 Jan 01:56:05 02:00:41 48° 260° (W) 02:05:18 437.325
KKS-1 30 Jan 02:00:51 02:04:50 33° 72° (ENE) 02:08:53 437.445
O/OREOS (USA 219) 30 Jan 02:08:12 02:12:21 33° 65° (ENE) 02:16:31 437.305
M-CUBED/EXP-1 PRIME 30 Jan 02:11:16 02:13:46 17° 68° (ENE) 02:16:18 437.505
BEESAT 2 30 Jan 02:13:32 02:17:33 60° 116° (ESE) 02:21:40 435.950
AIST 2 30 Jan 02:14:07 02:17:23 23° 111° (ESE) 02:20:48 435.215
BEESAT 3 30 Jan 02:26:49 02:30:53 80° 299° (WNW) 02:35:03 437.485
Gurwin Techsat 1B 30 Jan 02:30:25 02:34:53 28° 95° (E) 02:39:27 435.225
AUBIESAT-1 30 Jan 02:42:36 02:46:17 35° 70° (ENE) 02:49:45 437.475
CUSAT 1 30 Jan 02:49:57 02:52:53 13° 82° (E) 02:56:33 437.405
Oscar 19 30 Jan 02:50:25 02:55:12 39° 288° (WNW) 02:59:54 437.125/150
GONETS M04 30 Jan 03:01:59 03:09:57 36° 286° (WNW) 03:17:45
ITAMSAT 1 30 Jan 03:07:49 03:13:04 82° 282° (WNW) 03:18:17 435.822/435.867
STARS 30 Jan 03:29:05 03:33:10 35° 262° (W) 03:37:14 437.465
PCSat 30 Jan 03:34:22 03:38:40 25° 108° (ESE) 03:43:07 145.827
ISS 30 Jan 03:34:52 03:35:35 11° 25° (NNE) 03:36:23 145.825
KKS-1 30 Jan 03:38:24 03:41:35 18° 267° (W) 03:44:38 437.445
M-CUBED/EXP-1 PRIME 30 Jan 03:44:56 03:48:37 30° 257° (WSW) 03:52:02 437.505
HORYU 2 30 Jan 03:45:38 03:49:56 48° 99° (E) 03:54:13 437.375
MOZHAYETS 4 30 Jan 03:46:48 03:49:41 17° 69° (ENE) 03:52:43
O/OREOS (USA 219) 30 Jan 03:48:16 03:51:33 19° 258° (WSW) 03:54:41 437.305
AIST 2 30 Jan 03:52:13 03:55:54 27° 306° (NW) 03:59:35 435.215
BEESAT 2 30 Jan 03:54:30 03:56:14 12° 313° (NW) 03:57:48 435.950
DANDE 30 Jan 04:02:50 04:10:16 44° 90° (E) 04:18:24 436.750
Gurwin Techsat 1B 30 Jan 04:10:13 04:14:51 30° 290° (WNW) 04:19:23 435.225
AUBIESAT-1 30 Jan 04:19:09 04:21:17 14° 261° (W) 04:23:11 437.475
AO-7 30 Jan 04:21:21 04:29:17 48° 101° (E) 04:37:14 29.400- 29.500
CUSAT 1 30 Jan 04:26:50 04:34:50 75° 96° (E) 04:43:19 437.405
RS-15 30 Jan 04:47:37 04:58:19 64° 113° (ESE) 05:09:05 29.354- 29.394
ISS 30 Jan 05:09:18 05:12:36 75° 43° (NE) 05:15:52 145.825
PCSat 30 Jan 05:16:57 05:21:56 36° 303° (WNW) 05:26:55 145.827
YUBILEINY 30 Jan 05:21:30 05:22:47 11° 60° (ENE) 05:24:56 435.215
PRISM 30 Jan 05:22:02 05:24:37 17° 70° (ENE) 05:27:21 437.425
MOZHAYETS 4 30 Jan 05:22:22 05:26:39 38° 262° (W) 05:30:56
HORYU 2 30 Jan 05:24:06 05:26:15 13° 293° (WNW) 05:28:10 437.375
JAS-2 30 Jan 05:24:46 05:30:38 81° 103° (ESE) 05:37:17 435.910
CUTE-I 30 Jan 05:40:03 05:41:58 12° 90° (E) 05:44:16 437.470
CUBESAT XI-V 30 Jan 05:41:16 05:44:36 21° 70° (ENE) 05:48:05 437.345
DANDE 30 Jan 05:46:16 05:53:50 39° 288° (WNW) 06:01:44 436.750
STRAND 1 30 Jan 06:09:08 06:13:35 32° 71° (ENE) 06:18:08 437.568
CUSAT 1 30 Jan 06:12:24 06:18:45 23° 293° (WNW) 06:24:50 437.405
AO-7 30 Jan 06:14:35 06:21:53 34° 296° (WNW) 06:28:59 29.400- 29.500
PRISM 30 Jan 06:56:17 06:59:57 31° 262° (W) 07:03:35 437.425
Cubesat XI-IV 30 Jan 06:57:30 07:02:54 80° 101° (ESE) 07:08:18 437.490
RS-15 30 Jan 07:01:42 07:11:26 34° 315° (NW) 07:21:04 29.354- 29.394
JAS-2 30 Jan 07:12:43 07:15:24 13° 293° (WNW) 07:17:47 435.910
YUBILEINY 30 Jan 07:12:50 07:21:36 71° 81° (E) 07:30:24 435.215
CUTE-I 30 Jan 07:17:16 07:22:37 67° 286° (WNW) 07:27:56 437.470
CUBESAT XI-V 30 Jan 07:17:48 07:21:53 31° 264° (W) 07:25:58 437.345
PHONESAT 2.4 30 Jan 07:18:05 07:19:26 12° 141° (SE) 07:20:55 2401.200-2431.200
STRAND 1 30 Jan 07:48:43 07:52:50 24° 265° (W) 07:56:52 437.568
VERMONT LUNAR 30 Jan 07:49:12 07:52:28 40° 149° (SSE) 07:55:47 437.305
CANX-2 30 Jan 08:23:46 08:25:34 13° 91° (E) 08:27:35 2200.000
Cubesat XI-IV 30 Jan 08:40:39 08:42:25 11° 296° (WNW) 08:43:51 437.490
CUTE 1.7 + AOD 2 30 Jan 08:46:31 08:49:48 22° 94° (E) 08:53:09 437.475
GOMX 1 30 Jan 08:50:22 08:54:58 30° 94° (E) 08:59:26 467.674
PHONESAT 2.4 30 Jan 08:54:03 08:57:37 73° 154° (SSE) 09:01:14 2401.200-2431.200
HO-68 30 Jan 08:57:18 09:03:58 42° 99° (E) 09:10:42 435.675
DOVE 4 30 Jan 08:57:54 09:01:56 24° 93° (E) 09:05:56 437.250
BRITE-PL 30 Jan 08:59:50 09:05:23 56° 99° (E) 09:10:37 437.365/2234.400
YUBILEINY 30 Jan 09:11:33 09:17:43 20° 276° (W) 09:23:24 435.215
SEEDS 30 Jan 09:15:06 09:19:05 42° 98° (E) 09:23:03 437.485
SO-50 30 Jan 09:21:51 09:24:51 18° 110° (ESE) 09:28:04 436.795
RS-15 30 Jan 09:25:19 09:28:51 12° 348° (NNW) 09:32:06 29.354- 29.394
VERMONT LUNAR 30 Jan 09:27:15 09:30:35 43° 344° (NNW) 09:33:57 437.305
ANTELSAT 30 Jan 09:27:54 09:30:32 15° 68° (ENE) 09:33:22 437.575/2403.000
TIGRISAT 30 Jan 09:34:32 09:37:34 18° 69° (ENE) 09:40:47 435.000
COMPASS 1 30 Jan 09:39:56 09:44:06 72° 101° (E) 09:48:14 437.405
CUBEBUG 2 30 Jan 09:42:07 09:45:22 20° 93° (E) 09:48:40 437.445
ZACube-1 30 Jan 09:45:35 09:47:50 14° 91° (E) 09:50:15 437.345
QB50P2 30 Jan 09:47:56 09:49:51 13° 68° (ENE) 09:52:00 145.880/145.840
DX 1 30 Jan 09:49:57 09:53:06 20° 94° (E) 09:56:23 434.975-435.025
DELFI C3 30 Jan 09:54:37 09:58:13 31° 97° (E) 10:01:51 145.870
QB50P1 30 Jan 09:56:09 09:58:43 16° 69° (ENE) 10:01:28 145.935-145.965
FUNcube-1 30 Jan 09:56:29 09:59:33 19° 93° (E) 10:02:41 145.935
CANX-2 30 Jan 09:57:48 10:01:46 40° 286° (WNW) 10:05:42 2200.000
BUGSAT 1 30 Jan 10:02:37 10:04:36 14° 69° (ENE) 10:06:48 437.445
AAUSAT CUBESAT 2 30 Jan 10:05:26 10:09:32 62° 284° (WNW) 10:13:36 437.432
POLYITAN 1 30 Jan 10:10:46 10:14:12 24° 71° (ENE) 10:17:46 437.675
CINEMA 3 30 Jan 10:13:16 10:18:05 87° 102° (ESE) 10:22:39 145.822/145.860
UWE-3 30 Jan 10:18:59 10:23:15 45° 98° (E) 10:27:24 435.000/436.395/437.385
AISAT 30 Jan 10:20:14 10:22:55 16° 92° (E) 10:25:47 437.250
CUTE 1.7 + AOD 2 30 Jan 10:22:17 10:25:42 24° 288° (WNW) 10:29:01 437.475
UNISAT 6 30 Jan 10:26:11 10:30:52 68° 76° (ENE) 10:35:33 437.425
Oscar 11 30 Jan 10:26:53 10:31:12 78° 283° (WNW) 10:35:29 145.826/435.025
GOMX 1 30 Jan 10:28:26 10:33:00 28° 290° (WNW) 10:37:18 467.674
POPSAT HIP 1 30 Jan 10:29:35 10:33:33 40° 74° (ENE) 10:37:36 437.405
DUCHIFAT 1 30 Jan 10:31:31 10:35:31 41° 74° (ENE) 10:39:35 145.980
PHONESAT 2.4 30 Jan 10:33:02 10:36:23 34° 349° (N) 10:39:44 2401.200-2431.200
DOVE 4 30 Jan 10:35:12 10:39:46 32° 289° (WNW) 10:44:02 437.250
BEESAT 2 30 Jan 10:38:18 10:40:26 14° 48° (NE) 10:42:42 435.950
BRITE-PL 30 Jan 10:39:42 10:43:24 17° 294° (WNW) 10:46:45 437.365/2234.400
50 SAT 30 Jan 10:40:17 10:43:28 23° 95° (E) 10:46:43 437.505
HO-68 30 Jan 10:45:19 10:51:33 33° 294° (WNW) 10:57:39 435.675
VELOX 1 30 Jan 10:46:49 10:50:49 31° 97° (E) 10:54:50 145.980
BEESAT 3 30 Jan 10:50:29 10:53:36 20° 51° (NE) 10:56:45 437.485
SEEDS 30 Jan 10:52:33 10:54:36 13° 291° (WNW) 10:56:25 437.485
CUBEBUG 1 30 Jan 10:53:02 10:55:17 14° 92° (E) 10:57:46 437.445
SO-50 30 Jan 11:00:50 11:05:06 39° 305° (NW) 11:09:30 436.795
ANTELSAT 30 Jan 11:02:27 11:07:01 46° 262° (W) 11:11:32 437.575/2403.000
UKube-1 30 Jan 11:02:57 11:07:14 56° 285° (WNW) 11:11:29 .
NANOSAT C BR1 30 Jan 11:06:07 11:10:22 71° 259° (W) 11:14:39 145.865
VERMONT LUNAR 30 Jan 11:06:08 11:09:10 27° 1° (N) 11:12:14 437.305
TIGRISAT 30 Jan 11:09:38 11:14:04 39° 262° (W) 11:18:29 435.000
HUMSAT D 30 Jan 11:13:52 11:18:06 90° 284° (WNW) 11:22:15 437.325/437.525
CUBEBUG 2 30 Jan 11:18:12 11:22:09 29° 288° (WNW) 11:25:55 437.445
ZACube-1 30 Jan 11:20:21 11:24:28 39° 287° (WNW) 11:28:26 437.345
QB50P2 30 Jan 11:21:20 11:25:26 44° 261° (W) 11:29:34 145.880/145.840
GONETS M04 30 Jan 11:21:38 11:26:11 16° 64° (ENE) 11:31:21
DX 1 30 Jan 11:25:33 11:29:25 30° 288° (WNW) 11:33:12 434.975-435.025
QB50P1 30 Jan 11:30:27 11:34:23 35° 262° (W) 11:38:19 145.935-145.965
DELFI C3 30 Jan 11:30:43 11:33:15 16° 290° (WNW) 11:35:38 145.870
FUNcube-1 30 Jan 11:32:09 11:35:59 29° 288° (WNW) 11:39:39 145.935
BUGSAT 1 30 Jan 11:35:58 11:39:48 38° 262° (W) 11:43:41 437.445
RS-15 30 Jan 11:42:01 11:48:09 16° 25° (NNE) 11:54:56 29.354- 29.394
POLYITAN 1 30 Jan 11:46:38 11:50:06 23° 265° (W) 11:53:30 437.675
AISAT 30 Jan 11:55:32 11:59:44 38° 287° (WNW) 12:03:53 437.250
UWE-3 30 Jan 11:57:08 11:59:26 14° 292° (WNW) 12:01:28 435.000/436.395/437.385
ESTCUBE 1 30 Jan 12:01:53 12:06:25 80° 283° (WNW) 12:10:57 437.505/2401.250
AIST 1 30 Jan 12:03:56 12:08:04 49° 279° (W) 12:12:13
POPSAT HIP 1 30 Jan 12:07:23 12:09:42 14° 269° (W) 12:11:48 437.405
SPROUT 30 Jan 12:08:40 12:12:09 24° 95° (E) 12:15:41 437.525
DUCHIFAT 1 30 Jan 12:09:31 12:11:38 13° 269° (W) 12:13:33 145.980
PHONESAT 2.4 30 Jan 12:12:14 12:15:29 30° 6° (N) 12:18:45 2401.200-2431.200
BEESAT 2 30 Jan 12:14:57 12:19:00 50° 245° (WSW) 12:22:56 435.950
50 SAT 30 Jan 12:15:25 12:18:30 21° 289° (WNW) 12:21:28 437.505
AIST 2 30 Jan 12:16:58 12:21:12 63° 60° (ENE) 12:25:21 435.215
VELOX 1 30 Jan 12:23:55 12:27:13 20° 291° (WNW) 12:30:23 145.980
Oscar 19 30 Jan 12:25:28 12:29:12 21° 69° (ENE) 12:33:07 437.125/150
CUBEBUG 1 30 Jan 12:27:42 12:31:55 42° 286° (WNW) 12:36:06 437.445
PCSat 30 Jan 12:27:51 12:29:03 11° 45° (NE) 12:30:34 145.827
BEESAT 3 30 Jan 12:28:09 12:31:47 30° 247° (WSW) 12:35:20 437.485
TISAT 1 30 Jan 12:40:59 12:45:13 57° 101° (E) 12:49:25 437.305
VERMONT LUNAR 30 Jan 12:44:21 12:47:44 47° 17° (NNE) 12:51:09 437.305
ITAMSAT 1 30 Jan 12:47:15 12:48:17 11° 64° (ENE) 12:49:39 435.822/435.867
GONETS M04 30 Jan 13:15:40 13:24:24 88° 264° (W) 13:33:07
SWISSCUBE 30 Jan 13:40:18 13:44:45 38° 98° (E) 13:49:13 437.505
SPROUT 30 Jan 13:44:39 13:48:11 24° 289° (WNW) 13:51:37 437.525
Gurwin Techsat 1B 30 Jan 13:47:55 13:52:28 31° 71° (ENE) 13:57:09 435.225
PHONESAT 2.4 30 Jan 13:50:45 13:54:23 73° 21° (NNE) 13:58:02 2401.200-2431.200
RS-15 30 Jan 13:53:05 14:04:09 54° 53° (NE) 14:15:46 29.354- 29.394
BEESAT 30 Jan 13:55:41 14:00:21 52° 100° (E) 14:05:01 436.000
ITUPSAT 1 30 Jan 14:00:21 14:05:05 58° 100° (E) 14:09:49 437.325
Oscar 19 30 Jan 14:03:28 14:08:19 39° 262° (W) 14:13:10 437.125/150
PCSat 30 Jan 14:08:00 14:13:27 81° 65° (ENE) 14:18:52 145.827
TISAT 1 30 Jan 14:19:42 14:20:36 10° 293° (WNW) 14:21:15 437.305
ITAMSAT 1 30 Jan 14:22:01 14:27:12 79° 256° (WSW) 14:32:25 435.822/435.867
VERMONT LUNAR 30 Jan 14:22:33 14:25:49 35° 212° (SSW) 14:29:04 437.305
HORYU 2 30 Jan 14:40:46 14:44:36 29° 72° (ENE) 14:48:31 437.375
DANDE 30 Jan 14:54:04 14:58:30 21° 64° (ENE) 15:02:18 436.750
CUSAT 1 30 Jan 15:15:26 15:20:44 38° 73° (ENE) 15:24:46 437.405
AO-7 30 Jan 15:16:05 15:23:55 48° 67° (ENE) 15:31:51 29.400- 29.500
GONETS M04 30 Jan 15:16:06 15:20:13 13° 279° (W) 15:23:35
SWISSCUBE 30 Jan 15:19:00 15:22:22 19° 291° (WNW) 15:25:36 437.505
STARS 30 Jan 15:22:27 15:26:50 56° 100° (E) 15:31:10 437.465
Gurwin Techsat 1B 30 Jan 15:27:58 15:32:28 27° 265° (W) 15:36:53 435.225
PHONESAT 2.4 30 Jan 15:29:56 15:32:44 21° 216° (SW) 15:35:30 2401.200-2431.200
M-CUBED/EXP-1 PRIME 30 Jan 15:30:40 15:33:09 19° 101° (E) 15:35:47 437.505
KKS-1 30 Jan 15:31:51 15:36:20 70° 284° (WNW) 15:40:45 437.445
BEESAT 30 Jan 15:35:16 15:37:49 14° 293° (WNW) 15:40:09 436.000
JAS-2 30 Jan 15:35:49 15:39:31 19° 69° (ENE) 15:43:15 435.910
ITUPSAT 1 30 Jan 15:40:19 15:42:34 13° 293° (WNW) 15:44:33 437.325
PCSat 30 Jan 15:55:47 15:56:17 10° 256° (WSW) 15:56:21 145.827
AUBIESAT-1 30 Jan 16:02:02 16:05:18 48° 105° (ESE) 16:08:43 437.475
RS-15 30 Jan 16:05:54 16:16:25 41° 251° (WSW) 16:27:03 29.354- 29.394
O/OREOS (USA 219) 30 Jan 16:16:14 16:20:42 80° 108° (ESE) 16:25:14 437.305
HORYU 2 30 Jan 16:17:49 16:21:18 21° 265° (W) 16:24:41 437.375
DANDE 30 Jan 16:36:51 16:42:22 36° 271° (W) 16:46:30 436.750
JUGNU 30 Jan 16:45:16 16:48:25 15° 169° (SSE) 16:51:39 437.505
CUTE-I 30 Jan 16:58:14 17:01:05 15° 66° (ENE) 17:04:12 437.470
CUSAT 1 30 Jan 16:59:49 17:03:04 16° 278° (W) 17:05:40 437.405
STARS 30 Jan 17:01:23 17:02:53 11° 293° (WNW) 17:04:08 437.465
M-CUBED/EXP-1 PRIME 30 Jan 17:05:47 17:08:06 17° 292° (WNW) 17:10:22 437.505
AO-7 30 Jan 17:09:27 17:16:54 34° 263° (W) 17:24:12 29.400- 29.500
JAS-2 30 Jan 17:19:10 17:24:28 42° 261° (W) 17:29:25 435.910
MOZHAYETS 4 30 Jan 17:20:58 17:25:31 66° 101° (E) 17:30:03
SRMSAT 30 Jan 17:29:44 17:31:25 11° 165° (SSE) 17:33:12 437.500
